| time (UTC) | temp F | wind direction | speed knots | gust knots | rain 1hr in | rain 24hr in | rain mn in | humidity % | barometer mb |
| 20260506062022 | 52 | 178 | 6.1 | 13.0 | 0.00 | 0.00 | 0.00 | 83 | 1007.4 |
| 20260506061522 | 52 | 193 | 7.8 | 13.9 | 0.00 | 0.00 | 0.00 | 84 | 1007.4 |
| 20260506061021 | 51 | 213 | 4.3 | 12.2 | 0.00 | 0.00 | 0.00 | 83 | 1007.5 |
| 20260506060520 | 51 | 176 | 5.2 | 9.6 | 0.00 | 0.00 | 0.00 | 83 | 1007.7 |
| 20260506051013 | 52 | 273 | 5.2 | 13.0 | 0.00 | 0.00 | 0.00 | 82 | 1007.4 |
| 20260506050513 | 52 | 136 | 7.0 | 13.9 | 0.00 | 0.00 | 0.00 | 82 | 1007.6 |
| 20260506045011 | 52 | 200 | 6.1 | 12.2 | 0.00 | 0.00 | 0.00 | 82 | 1007.7 |
| 20260506044524 | 52 | 193 | 4.3 | 10.4 | 0.00 | 0.00 | 0.00 | 81 | 1007.7 |
| 20260506044009 | 52 | 173 | 4.3 | 8.7 | 0.00 | 0.00 | 0.00 | 81 | 1007.7 |
| 20260506043509 | 53 | 202 | 5.2 | 15.6 | 0.00 | 0.00 | 0.00 | 81 | 1007.7 |
| 20260506043008 | 53 | 165 | 5.2 | 15.6 | 0.00 | 0.00 | 0.00 | 80 | 1007.8 |
| 20260506042506 | 53 | 176 | 5.2 | 16.5 | 0.00 | 0.00 | 0.00 | 80 | 1007.7 |
| 20260506042007 | 53 | 190 | 5.2 | 16.5 | 0.00 | 0.00 | 0.00 | 80 | 1007.7 |
| 20260506041504 | 53 | 194 | 6.1 | 16.5 | 0.00 | 0.00 | 0.00 | 80 | 1007.6 |
| 20260506041007 | 53 | 201 | 5.2 | 10.4 | 0.00 | 0.00 | 0.00 | 80 | 1007.7 |
| 20260506040502 | 53 | 179 | 6.1 | 13.0 | 0.00 | 0.00 | 0.00 | 80 | 1007.2 |
| 20260506040001 | 54 | 166 | 7.0 | 15.6 | 0.00 | 0.00 | 0.00 | 80 | 1007.4 |
| 20260506035501 | 53 | 138 | 7.8 | 15.6 | 0.00 | 0.00 | 0.00 | 80 | 1007.3 |
| 20260506035001 | 54 | 159 | 4.3 | 14.8 | 0.00 | 0.00 | 0.00 | 80 | 1007.5 |
| 20260506034502 | 54 | 187 | 6.1 | 14.8 | 0.00 | 0.00 | 0.00 | 80 | 1007.4 |
| 20260506034100 | 54 | 254 | 4.3 | 12.2 | 0.00 | 0.00 | 0.00 | 80 | 1007.3 |
| 20260506034001 | 54 | 146 | 5.2 | 12.2 | 0.00 | 0.00 | 0.00 | 80 | 1007.2 |
| 20260506033501 | 54 | 160 | 7.0 | 12.2 | 0.00 | 0.00 | 0.00 | 81 | 1007.2 |
| 20260506033000 | 54 | 169 | 5.2 | 10.4 | 0.00 | 0.00 | 0.00 | 81 | 1007.1 |
| 20260506032602 | 53 | 174 | 5.2 | 10.4 | 0.00 | 0.00 | 0.00 | 81 | 1007.1 |
| 20260506032502 | 53 | 200 | 5.2 | 10.4 | 0.00 | 0.00 | 0.00 | 81 | 1007.1 |
| 20260506032100 | 53 | 130 | 5.2 | 9.6 | 0.00 | 0.00 | 0.00 | 80 | 1007.1 |
| 20260506031606 | 53 | 157 | 5.2 | 9.6 | 0.00 | 0.00 | 0.00 | 80 | 1007.2 |
| 20260506031100 | 54 | 157 | 5.2 | 9.6 | 0.00 | 0.00 | 0.00 | 80 | 1007.3 |
| 20260506030559 | 54 | 138 | 3.5 | 8.7 | 0.00 | 0.00 | 0.00 | 79 | 1007.1 |
| 20260506030100 | 54 | 211 | 3.5 | 9.6 | 0.00 | 0.00 | 0.00 | 79 | 1007.2 |
| 20260506025558 | 54 | 193 | 5.2 | 9.6 | 0.00 | 0.00 | 0.00 | 78 | 1007.3 |
| 20260506025201 | 54 | 204 | 4.3 | 7.8 | 0.00 | 0.00 | 0.00 | 78 | 1007.3 |
| 20260506024559 | 54 | 180 | 3.5 | 9.6 | 0.00 | 0.00 | 0.00 | 77 | 1007.3 |
| 20260506024058 | 55 | 165 | 3.5 | 9.6 | 0.00 | 0.00 | 0.00 | 76 | 1007.3 |
| 20260506023557 | 55 | 187 | 5.2 | 10.4 | 0.00 | 0.00 | 0.00 | 76 | 1007.3 |
| 20260506023111 | 55 | 191 | 3.5 | 11.3 | 0.00 | 0.00 | 0.00 | 76 | 1007.3 |
| 20260506022557 | 56 | 182 | 5.2 | 13.9 | 0.00 | 0.00 | 0.00 | 75 | 1007.3 |
| 20260506022159 | 56 | 192 | 6.1 | 13.9 | 0.00 | 0.00 | 0.00 | 75 | 1007.2 |
| 20260506021557 | 56 | 194 | 4.3 | 9.6 | 0.00 | 0.00 | 0.00 | 75 | 1007.2 |
| 20260506021057 | 56 | 164 | 4.3 | 9.6 | 0.00 | 0.00 | 0.00 | 75 | 1007.4 |
| 20260506020556 | 56 | 188 | 5.2 | 9.6 | 0.00 | 0.00 | 0.00 | 74 | 1007.5 |
| 20260506020057 | 56 | 212 | 3.5 | 10.4 | 0.00 | 0.00 | 0.00 | 74 | 1007.4 |
| 20260506015555 | 57 | 219 | 4.3 | 9.6 | 0.00 | 0.00 | 0.00 | 73 | 1007.6 |
| 20260506015056 | 57 | 177 | 4.3 | 12.2 | 0.00 | 0.00 | 0.00 | 73 | 1007.4 |
| 20260506014556 | 57 | 234 | 4.3 | 12.2 | 0.00 | 0.00 | 0.00 | 73 | 1007.5 |
| 20260506014055 | 57 | 213 | 4.3 | 8.7 | 0.00 | 0.00 | 0.00 | 73 | 1007.5 |
| 20260506013555 | 58 | 159 | 3.5 | 11.3 | 0.00 | 0.00 | 0.00 | 72 | 1007.6 |
| 20260506013058 | 58 | 186 | 4.3 | 11.3 | 0.00 | 0.00 | 0.00 | 72 | 1007.4 |
| 20260506012556 | 58 | 202 | 2.6 | 9.6 | 0.00 | 0.00 | 0.00 | 72 | 1007.4 |
| 20260506012055 | 58 | 190 | 4.3 | 11.3 | 0.00 | 0.00 | 0.00 | 71 | 1007.4 |
| 20260506011617 | 59 | 185 | 4.3 | 11.3 | 0.00 | 0.00 | 0.00 | 71 | 1007.2 |
| 20260506011054 | 59 | 163 | 4.3 | 8.7 | 0.00 | 0.00 | 0.00 | 71 | 1007.0 |
| 20260506010555 | 59 | 196 | 5.2 | 11.3 | 0.00 | 0.00 | 0.00 | 70 | 1007.0 |
| 20260506005554 | 59 | 153 | 3.5 | 12.2 | 0.00 | 0.00 | 0.00 | 70 | 1007.0 |
| 20260506005053 | 59 | 187 | 7.0 | 13.0 | 0.00 | 0.00 | 0.00 | 70 | 1007.2 |
| 20260506004621 | 59 | 190 | 5.2 | 13.0 | 0.00 | 0.00 | 0.00 | 70 | 1007.0 |
| 20260506004053 | 59 | 213 | 5.2 | 13.0 | 0.00 | 0.00 | 0.00 | 71 | 1007.3 |
| 20260506003553 | 59 | 160 | 4.3 | 13.0 | 0.00 | 0.00 | 0.00 | 71 | 1006.8 |
| 20260506003153 | 59 | 228 | 5.2 | 13.0 | 0.00 | 0.00 | 0.00 | 71 | 1006.4 |
| 20260506002552 | 59 | 131 | 6.1 | 13.0 | 0.00 | 0.00 | 0.00 | 71 | 1006.6 |
| 20260506002051 | 59 | 157 | 5.2 | 10.4 | 0.00 | 0.00 | 0.00 | 71 | 1006.6 |
| 20260506001556 | 59 | 192 | 4.3 | 10.4 | 0.00 | 0.00 | 0.00 | 71 | 1006.3 |
| 20260506001052 | 59 | 165 | 5.2 | 10.4 | 0.00 | 0.00 | 0.00 | 71 | 1006.1 |
| 20260506000552 | 59 | 202 | 6.1 | 10.4 | 0.00 | 0.00 | 0.00 | 71 | 1006.1 |
| 20260506000052 | 60 | 159 | 4.3 | 9.6 | 0.00 | 0.00 | 0.00 | 70 | 1006.0 |
| 20260505235550 | 60 | 146 | 3.5 | 11.3 | 0.00 | 0.00 | 0.00 | 69 | 1005.9 |
| 20260505235051 | 61 | 159 | 4.3 | 11.3 | 0.00 | 0.00 | 0.00 | 71 | 1005.8 |
| 20260505234614 | 61 | 156 | 1.7 | 6.1 | 0.00 | 0.00 | 0.00 | 71 | 1006.0 |
| 20260505234051 | 61 | 130 | 2.6 | 6.1 | 0.00 | 0.00 | 0.00 | 71 | 1006.0 |
| 20260505233550 | 60 | 217 | 2.6 | 7.8 | 0.00 | 0.00 | 0.00 | 71 | 1006.1 |
| 20260505233050 | 60 | 159 | 2.6 | 8.7 | 0.00 | 0.00 | 0.00 | 72 | 1006.1 |
| 20260505232550 | 59 | 222 | 3.5 | 11.3 | 0.00 | 0.00 | 0.00 | 72 | 1005.9 |
| 20260505232050 | 59 | 167 | 3.5 | 12.2 | 0.00 | 0.00 | 0.00 | 72 | 1005.8 |
| 20260505231550 | 58 | 214 | 6.1 | 14.8 | 0.00 | 0.00 | 0.00 | 73 | 1006.0 |
| 20260505231053 | 58 | 284 | 7.0 | 20.0 | 0.00 | 0.00 | 0.00 | 73 | 1006.0 |
| 20260505230549 | 57 | 182 | 7.0 | 20.0 | 0.00 | 0.00 | 0.00 | 74 | 1006.1 |
| 20260505230049 | 57 | 141 | 6.1 | 15.6 | 0.00 | 0.00 | 0.00 | 74 | 1004.6 |
| 20260505225548 | 57 | 196 | 7.8 | 19.1 | 0.00 | 0.00 | 0.00 | 74 | 1004.6 |
| 20260505225047 | 57 | 264 | 8.7 | 19.1 | 0.00 | 0.00 | 0.00 | 73 | 1004.3 |
| 20260505224549 | 57 | 179 | 7.8 | 17.4 | 0.00 | 0.00 | 0.00 | 74 | 1004.1 |
| 20260505224048 | 57 | 221 | 8.7 | 15.6 | 0.00 | 0.00 | 0.00 | 74 | 1004.2 |
| 20260505223547 | 57 | 254 | 7.0 | 17.4 | 0.00 | 0.00 | 0.00 | 74 | 1004.1 |
| 20260505223049 | 57 | 174 | 8.7 | 19.1 | 0.00 | 0.00 | 0.00 | 74 | 1004.1 |
| 20260505222648 | 57 | 214 | 4.3 | 19.1 | 0.00 | 0.00 | 0.00 | 74 | 1004.0 |
| 20260505222048 | 57 | 168 | 7.8 | 18.2 | 0.00 | 0.00 | 0.00 | 74 | 1003.9 |
| 20260505221547 | 57 | 232 | 6.1 | 13.9 | 0.00 | 0.00 | 0.00 | 74 | 1003.8 |
| 20260505221047 | 57 | 240 | 7.0 | 19.1 | 0.00 | 0.00 | 0.00 | 74 | 1003.6 |
| 20260505220546 | 57 | 176 | 11.3 | 19.1 | 0.00 | 0.00 | 0.00 | 74 | 1003.7 |
| 20260505220059 | 57 | 184 | 7.0 | 19.1 | 0.00 | 0.00 | 0.00 | 75 | 1003.7 |
| 20260505215546 | 56 | 227 | 6.1 | 19.1 | 0.00 | 0.00 | 0.00 | 75 | 1003.7 |
| 20260505215046 | 56 | 106 | 4.3 | 18.2 | 0.00 | 0.00 | 0.00 | 75 | 1003.7 |
| 20260505214546 | 56 | 152 | 5.2 | 20.0 | 0.00 | 0.00 | 0.00 | 75 | 1003.6 |
| 20260505214046 | 56 | 211 | 7.8 | 20.9 | 0.00 | 0.00 | 0.00 | 75 | 1003.7 |
| 20260505213544 | 56 | 163 | 7.0 | 17.4 | 0.00 | 0.00 | 0.00 | 75 | 1003.5 |
| 20260505213045 | 56 | 222 | 7.0 | 15.6 | 0.00 | 0.00 | 0.00 | 75 | 1003.6 |
| 20260505212547 | 56 | 98 | 6.1 | 16.5 | 0.00 | 0.00 | 0.00 | 75 | 1003.4 |
| 20260505212045 | 56 | 213 | 6.1 | 16.5 | 0.00 | 0.00 | 0.00 | 74 | 1003.3 |
| 20260505211550 | 57 | 223 | 8.7 | 15.6 | 0.00 | 0.00 | 0.00 | 74 | 1003.3 |
| 20260505211045 | 57 | 166 | 7.0 | 19.1 | 0.00 | 0.00 | 0.00 | 74 | 1003.4 |
| 20260505210545 | 58 | 177 | 8.7 | 16.5 | 0.00 | 0.00 | 0.00 | 74 | 1003.4 |
| 20260505210043 | 58 | 201 | 7.0 | 20.9 | 0.00 | 0.00 | 0.00 | 73 | 1003.4 |
| 20260505205543 | 58 | 196 | 9.6 | 22.6 | 0.00 | 0.00 | 0.00 | 73 | 1003.4 |
| 20260505205043 | 58 | 191 | 7.8 | 22.6 | 0.00 | 0.00 | 0.00 | 73 | 1003.2 |
| 20260505204545 | 58 | 137 | 9.6 | 18.2 | 0.00 | 0.00 | 0.00 | 73 | 1003.3 |
| 20260505204042 | 58 | 197 | 8.7 | 19.1 | 0.00 | 0.00 | 0.00 | 74 | 1003.4 |
| 20260505203542 | 58 | 196 | 5.2 | 20.9 | 0.00 | 0.00 | 0.00 | 74 | 1003.5 |
| 20260505203041 | 58 | 173 | 8.7 | 20.9 | 0.00 | 0.00 | 0.00 | 74 | 1003.5 |
| 20260505202540 | 58 | 124 | 8.7 | 19.1 | 0.00 | 0.00 | 0.00 | 73 | 1003.6 |
| 20260505202043 | 58 | 205 | 6.1 | 20.9 | 0.00 | 0.00 | 0.00 | 74 | 1003.6 |
| 20260505201541 | 58 | 134 | 8.7 | 20.9 | 0.00 | 0.00 | 0.00 | 73 | 1003.6 |
| 20260505201040 | 58 | 198 | 4.3 | 18.2 | 0.00 | 0.00 | 0.00 | 74 | 1003.7 |
| 20260505200539 | 58 | 130 | 5.2 | 19.1 | 0.00 | 0.00 | 0.00 | 75 | 1003.7 |
| 20260505200039 | 58 | 174 | 10.4 | 19.1 | 0.00 | 0.00 | 0.00 | 74 | 1003.7 |
| 20260505195538 | 58 | 205 | 8.7 | 24.3 | 0.00 | 0.00 | 0.00 | 74 | 1003.7 |
| 20260505195038 | 58 | 193 | 7.8 | 24.3 | 0.00 | 0.00 | 0.00 | 75 | 1003.9 |
| 20260505194542 | 58 | 190 | 7.8 | 24.3 | 0.00 | 0.00 | 0.00 | 74 | 1004.0 |
| 20260505194037 | 58 | 171 | 7.0 | 16.5 | 0.00 | 0.00 | 0.00 | 74 | 1004.0 |
| 20260505193538 | 58 | 134 | 6.1 | 20.0 | 0.00 | 0.00 | 0.00 | 75 | 1004.2 |
| 20260505193042 | 58 | 158 | 8.7 | 26.1 | 0.00 | 0.00 | 0.00 | 74 | 1004.1 |
| 20260505192535 | 58 | 180 | 10.4 | 26.1 | 0.00 | 0.00 | 0.00 | 75 | 1004.1 |
| 20260505192035 | 58 | 190 | 8.7 | 21.7 | 0.00 | 0.00 | 0.00 | 74 | 1004.2 |
| 20260505191549 | 58 | 190 | 8.7 | 20.0 | 0.00 | 0.00 | 0.00 | 73 | 1004.5 |
| 20260505191037 | 59 | 193 | 9.6 | 15.6 | 0.00 | 0.00 | 0.00 | 72 | 1004.7 |
| 20260505190533 | 59 | 279 | 6.1 | 15.6 | 0.00 | 0.00 | 0.00 | 73 | 1004.7 |
| 20260505190033 | 59 | 230 | 7.8 | 16.5 | 0.00 | 0.00 | 0.00 | 73 | 1004.6 |
| 20260505185531 | 59 | 189 | 6.1 | 15.6 | 0.00 | 0.00 | 0.00 | 72 | 1004.7 |
| 20260505185034 | 59 | 182 | 6.1 | 13.0 | 0.00 | 0.00 | 0.00 | 72 | 1004.9 |
| 20260505184532 | 59 | 144 | 4.3 | 15.6 | 0.00 | 0.00 | 0.00 | 72 | 1004.9 |
| 20260505184032 | 60 | 135 | 6.1 | 19.1 | 0.00 | 0.00 | 0.00 | 71 | 1004.8 |
| 20260505183531 | 60 | 108 | 7.8 | 19.1 | 0.00 | 0.00 | 0.00 | 71 | 1004.9 |
| 20260505183031 | 60 | 134 | 7.8 | 19.1 | 0.00 | 0.00 | 0.00 | 71 | 1004.9 |
| 20260505182534 | 60 | 150 | 7.8 | 22.6 | 0.00 | 0.00 | 0.00 | 73 | 1004.9 |
| 20260505182030 | 60 | 159 | 8.7 | 22.6 | 0.00 | 0.00 | 0.00 | 71 | 1005.1 |
| 20260505181531 | 60 | 147 | 7.8 | 20.9 | 0.00 | 0.00 | 0.00 | 72 | 1005.1 |
| 20260505181030 | 60 | 198 | 8.7 | 20.9 | 0.00 | 0.00 | 0.00 | 71 | 1005.1 |
| 20260505180529 | 60 | 173 | 7.8 | 20.0 | 0.00 | 0.00 | 0.00 | 72 | 1005.2 |
| 20260505180042 | 60 | 141 | 9.6 | 20.0 | 0.00 | 0.00 | 0.00 | 72 | 1005.3 |
| 20260505175527 | 60 | 165 | 8.7 | 18.2 | 0.00 | 0.00 | 0.00 | 71 | 1005.3 |
| 20260505175031 | 60 | 149 | 9.6 | 19.1 | 0.00 | 0.00 | 0.00 | 71 | 1005.2 |
| 20260505174536 | 60 | 168 | 7.0 | 19.1 | 0.00 | 0.00 | 0.00 | 71 | 1005.3 |
| 20260505174027 | 61 | 192 | 7.8 | 19.1 | 0.00 | 0.00 | 0.00 | 69 | 1005.5 |
| 20260505173527 | 61 | 155 | 8.7 | 19.1 | 0.00 | 0.00 | 0.00 | 69 | 1005.5 |
| 20260505173026 | 61 | 130 | 7.0 | 20.0 | 0.00 | 0.00 | 0.00 | 70 | 1005.6 |
| 20260505172529 | 61 | 177 | 9.6 | 20.0 | 0.00 | 0.00 | 0.00 | 71 | 1005.7 |
| 20260505172025 | 60 | 107 | 8.7 | 17.4 | 0.00 | 0.00 | 0.00 | 70 | 1005.8 |
| 20260505171531 | 60 | 143 | 7.8 | 13.9 | 0.00 | 0.00 | 0.00 | 70 | 1005.7 |
| 20260505171024 | 60 | 180 | 6.1 | 16.5 | 0.00 | 0.00 | 0.00 | 71 | 1005.8 |
| 20260505170523 | 60 | 154 | 7.0 | 15.6 | 0.00 | 0.00 | 0.00 | 74 | 1006.1 |
| 20260505170027 | 60 | 161 | 7.8 | 16.5 | 0.00 | 0.00 | 0.00 | 71 | 1006.1 |
| 20260505165526 | 60 | 138 | 5.2 | 16.5 | 0.00 | 0.00 | 0.00 | 72 | 1006.2 |
| 20260505165021 | 60 | 221 | 7.8 | 13.0 | 0.00 | 0.00 | 0.00 | 72 | 1006.0 |
| 20260505164521 | 60 | 208 | 6.1 | 16.5 | 0.00 | 0.00 | 0.00 | 72 | 1006.2 |
| 20260505164021 | 60 | 123 | 8.7 | 19.1 | 0.00 | 0.00 | 0.00 | 71 | 1006.4 |
| 20260505163520 | 60 | 145 | 7.8 | 19.1 | 0.00 | 0.00 | 0.00 | 71 | 1006.5 |
| 20260505163021 | 60 | 189 | 8.7 | 14.8 | 0.00 | 0.00 | 0.00 | 70 | 1006.5 |
| 20260505162519 | 61 | 165 | 7.0 | 20.0 | 0.00 | 0.00 | 0.00 | 69 | 1006.8 |
| 20260505162018 | 61 | 172 | 7.8 | 20.0 | 0.00 | 0.00 | 0.00 | 70 | 1006.6 |
| 20260505161518 | 61 | 177 | 7.8 | 13.0 | 0.00 | 0.00 | 0.00 | 69 | 1006.7 |
| 20260505161017 | 62 | 189 | 8.7 | 15.6 | 0.00 | 0.00 | 0.00 | 66 | 1006.9 |
| 20260505160517 | 63 | 114 | 7.0 | 13.9 | 0.00 | 0.00 | 0.00 | 66 | 1006.9 |
| 20260505153008 | 60 | 211 | 5.2 | 13.0 | 0.00 | 0.00 | 0.00 | 72 | 1007.5 |
| 20260505152508 | 60 | 166 | 3.5 | 11.3 | 0.00 | 0.00 | 0.00 | 74 | 1007.7 |
| 20260505152007 | 59 | 163 | 5.2 | 13.9 | 0.00 | 0.00 | 0.00 | 75 | 1007.8 |
| 20260505151506 | 58 | 172 | 4.3 | 16.5 | 0.00 | 0.00 | 0.00 | 79 | 1007.8 |
| 20260505151005 | 56 | 190 | 7.8 | 16.5 | 0.00 | 0.00 | 0.00 | 78 | 1007.7 |
| 20260505150505 | 55 | 171 | 7.0 | 15.6 | 0.00 | 0.00 | 0.00 | 80 | 1007.8 |
| 20260505140503 | 59 | 161 | 5.2 | 12.2 | 0.00 | 0.00 | 0.00 | 71 | 1007.6 |
| 20260505124549 | 56 | 212 | 4.3 | 10.4 | 0.00 | 0.00 | 0.00 | 76 | 1007.3 |
| 20260505124047 | 55 | 140 | 5.2 | 13.9 | 0.00 | 0.00 | 0.00 | 76 | 1007.4 |
| 20260505123545 | 55 | 225 | 3.5 | 13.9 | 0.00 | 0.00 | 0.00 | 76 | 1007.5 |
| 20260505123102 | 55 | 194 | 4.3 | 12.2 | 0.00 | 0.00 | 0.00 | 76 | 1007.3 |
| 20260505122543 | 55 | 192 | 2.6 | 10.4 | 0.00 | 0.00 | 0.00 | 77 | 1007.3 |
| 20260505122042 | 54 | 205 | 2.6 | 10.4 | 0.00 | 0.00 | 0.00 | 77 | 1007.2 |
| 20260505121541 | 54 | 178 | 7.0 | 10.4 | 0.00 | 0.00 | 0.00 | 77 | 1007.3 |
| 20260505121041 | 54 | 239 | 5.2 | 10.4 | 0.00 | 0.00 | 0.00 | 77 | 1007.6 |
| 20260505120540 | 54 | 203 | 1.7 | 10.4 | 0.00 | 0.00 | 0.00 | 78 | 1007.7 |
| 20260505120040 | 54 | 209 | 4.3 | 10.4 | 0.00 | 0.00 | 0.00 | 78 | 1007.7 |
| 20260505115538 | 53 | 202 | 4.3 | 9.6 | 0.00 | 0.00 | 0.00 | 79 | 1007.8 |
| 20260505115038 | 53 | 182 | 3.5 | 8.7 | 0.00 | 0.00 | 0.00 | 80 | 1007.8 |
| 20260505114548 | 53 | 170 | 4.3 | 12.2 | 0.00 | 0.00 | 0.00 | 81 | 1008.1 |
| 20260505114037 | 52 | 227 | 4.3 | 13.0 | 0.00 | 0.00 | 0.00 | 81 | 1008.1 |
| 20260505113539 | 52 | 203 | 2.6 | 10.4 | 0.00 | 0.00 | 0.00 | 82 | 1008.0 |
| 20260505113038 | 51 | 161 | 4.3 | 8.7 | 0.00 | 0.00 | 0.00 | 83 | 1008.0 |
| 20260505112535 | 51 | 150 | 3.5 | 7.8 | 0.00 | 0.00 | 0.00 | 83 | 1008.0 |
| 20260505112033 | 51 | 184 | 1.7 | 7.0 | 0.00 | 0.00 | 0.00 | 84 | 1008.0 |
| 20260505111550 | 50 | 195 | 1.7 | 6.1 | 0.00 | 0.00 | 0.00 | 85 | 1008.1 |
| 20260505111030 | 50 | 128 | 2.6 | 7.0 | 0.00 | 0.00 | 0.00 | 85 | 1008.0 |
| 20260505110529 | 49 | 177 | 1.7 | 7.0 | 0.00 | 0.00 | 0.00 | 85 | 1008.0 |
| 20260505102026 | 49 | 166 | 2.6 | 8.7 | 0.00 | 0.00 | 0.00 | 84 | 1008.0 |
| 20260505101531 | 49 | 177 | 2.6 | 8.7 | 0.00 | 0.00 | 0.00 | 84 | 1007.9 |
| 20260505101023 | 49 | 146 | 2.6 | 7.8 | 0.00 | 0.00 | 0.00 | 84 | 1007.9 |
| 20260505100521 | 49 | 163 | 2.6 | 9.6 | 0.00 | 0.00 | 0.00 | 84 | 1007.9 |
| 20260505100022 | 49 | 142 | 2.6 | 6.1 | 0.00 | 0.00 | 0.00 | 83 | 1007.8 |
| 20260505095519 | 49 | 159 | 3.5 | 8.7 | 0.00 | 0.00 | 0.00 | 83 | 1007.8 |
| 20260505095018 | 49 | 158 | 2.6 | 8.7 | 0.00 | 0.00 | 0.00 | 83 | 1007.7 |
| 20260505094519 | 48 | 144 | 3.5 | 8.7 | 0.00 | 0.00 | 0.00 | 83 | 1007.9 |
| 20260505094019 | 48 | 184 | 3.5 | 9.6 | 0.00 | 0.00 | 0.00 | 83 | 1007.9 |
| 20260505093516 | 48 | 165 | 4.3 | 8.7 | 0.00 | 0.00 | 0.00 | 83 | 1007.7 |
| 20260505093015 | 48 | 207 | 2.6 | 7.0 | 0.00 | 0.00 | 0.00 | 84 | 1007.9 |
| 20260505092515 | 48 | 161 | 2.6 | 7.0 | 0.00 | 0.00 | 0.00 | 84 | 1007.9 |
| 20260505092014 | 48 | 202 | 3.5 | 8.7 | 0.00 | 0.00 | 0.00 | 84 | 1008.0 |
| 20260505091514 | 48 | 200 | 2.6 | 6.1 | 0.00 | 0.00 | 0.00 | 85 | 1007.8 |
| 20260505091015 | 47 | 175 | 2.6 | 7.0 | 0.00 | 0.00 | 0.00 | 85 | 1007.9 |
| 20260505090514 | 47 | 194 | 2.6 | 7.0 | 0.00 | 0.00 | 0.00 | 85 | 1007.9 |
| 20260505090013 | 47 | 168 | 3.5 | 6.1 | 0.00 | 0.00 | 0.00 | 84 | 1007.9 |
| 20260505085513 | 47 | 198 | 2.6 | 7.0 | 0.00 | 0.00 | 0.00 | 84 | 1008.1 |
| 20260505085015 | 47 | 179 | 4.3 | 7.0 | 0.00 | 0.00 | 0.00 | 84 | 1008.1 |
| 20260505084516 | 47 | 180 | 2.6 | 6.1 | 0.00 | 0.00 | 0.00 | 83 | 1008.0 |
| 20260505084010 | 47 | 191 | 1.7 | 7.0 | 0.00 | 0.00 | 0.00 | 83 | 1008.1 |
| 20260505083509 | 48 | 186 | 2.6 | 7.0 | 0.00 | 0.00 | 0.00 | 82 | 1008.1 |
| 20260505083014 | 48 | 162 | 1.7 | 5.2 | 0.00 | 0.00 | 0.00 | 82 | 1008.1 |
| 20260505082507 | 48 | 163 | 1.7 | 6.1 | 0.00 | 0.00 | 0.00 | 81 | 1008.2 |
| 20260505082007 | 48 | 165 | 2.6 | 6.1 | 0.00 | 0.00 | 0.00 | 81 | 1008.1 |
| 20260505081505 | 48 | 155 | 2.6 | 6.1 | 0.00 | 0.00 | 0.00 | 80 | 1008.2 |
| 20260505081007 | 48 | 163 | 1.7 | 4.3 | 0.00 | 0.00 | 0.00 | 80 | 1008.2 |
| 20260505080502 | 49 | 140 | 2.6 | 3.5 | 0.00 | 0.00 | 0.00 | 79 | 1008.2 |
| 20260505080005 | 49 | 157 | 1.7 | 4.3 | 0.00 | 0.00 | 0.00 | 79 | 1008.1 |
| 20260505075600 | 49 | 155 | 2.6 | 4.3 | 0.00 | 0.00 | 0.00 | 78 | 1008.0 |
| 20260505075501 | 49 | 156 | 1.7 | 4.3 | 0.00 | 0.00 | 0.00 | 78 | 1008.0 |
| 20260505075100 | 49 | 184 | 2.6 | 7.0 | 0.00 | 0.00 | 0.00 | 78 | 1008.1 |
| 20260505074600 | 50 | 167 | 2.6 | 7.0 | 0.00 | 0.00 | 0.00 | 78 | 1008.2 |
| 20260505074059 | 50 | 136 | 1.7 | 6.1 | 0.00 | 0.00 | 0.00 | 78 | 1008.1 |
| 20260505073600 | 50 | 190 | 1.7 | 6.1 | 0.00 | 0.00 | 0.00 | 78 | 1008.1 |
| 20260505073106 | 50 | 195 | 2.6 | 7.0 | 0.00 | 0.00 | 0.00 | 78 | 1008.0 |
| 20260505072558 | 49 | 192 | 1.7 | 7.8 | 0.00 | 0.00 | 0.00 | 78 | 1007.9 |
| 20260505072059 | 49 | 195 | 1.7 | 7.0 | 0.00 | 0.00 | 0.00 | 78 | 1007.9 |
| 20260505071558 | 49 | 204 | 2.6 | 7.0 | 0.00 | 0.00 | 0.00 | 79 | 1007.8 |
| 20260505071058 | 49 | 192 | 3.5 | 7.0 | 0.00 | 0.00 | 0.00 | 79 | 1007.9 |
| 20260505070558 | 49 | 202 | 1.7 | 6.1 | 0.00 | 0.00 | 0.00 | 79 | 1007.8 |
| 20260505070057 | 49 | 196 | 1.7 | 6.1 | 0.00 | 0.00 | 0.00 | 79 | 1007.9 |
| 20260505065555 | 49 | 166 | 2.6 | 5.2 | 0.00 | 0.00 | 0.00 | 78 | 1008.1 |
| 20260505065059 | 50 | 174 | 1.7 | 7.0 | 0.00 | 0.00 | 0.00 | 78 | 1007.9 |
| 20260505064602 | 50 | 184 | 2.6 | 7.0 | 0.00 | 0.00 | 0.00 | 77 | 1007.9 |
| 20260505064055 | 50 | 159 | 2.6 | 4.3 | 0.00 | 0.00 | 0.00 | 77 | 1007.9 |